| time (UTC) | temp F | wind direction | speed knots | gust knots | rain 1hr in | rain 24hr in | rain mn in | humidity % | barometer mb |
| 20260505123023 | 47 | 224 | 0.0 | 0.0 | 0.00 | 0.00 | 0.00 | 100 | 1022.0 |
| 20260505122638 | 47 | 224 | 0.0 | 0.0 | 0.00 | 0.00 | 0.00 | 100 | 1022.0 |
| 20260505122023 | 48 | 223 | 0.0 | 0.9 | 0.00 | 0.00 | 0.00 | 100 | 1022.0 |
| 20260505121523 | 48 | 215 | 0.9 | 1.7 | 0.00 | 0.00 | 0.00 | 100 | 1022.0 |
| 20260505121023 | 48 | 204 | 0.9 | 1.7 | 0.00 | 0.00 | 0.00 | 100 | 1022.0 |
| 20260505120523 | 49 | 204 | 0.9 | 1.7 | 0.00 | 0.00 | 0.00 | 100 | 1022.0 |
| 20260505120023 | 49 | 212 | 0.9 | 2.6 | 0.00 | 0.00 | 0.00 | 100 | 1022.0 |
| 20260505115523 | 49 | 218 | 0.9 | 2.6 | 0.00 | 0.00 | 0.00 | 100 | 1022.0 |
| 20260505115022 | 48 | 222 | 0.9 | 2.6 | 0.00 | 0.00 | 0.00 | 100 | 1022.0 |
| 20260505114523 | 48 | 218 | 0.0 | 1.7 | 0.00 | 0.00 | 0.00 | 100 | 1022.0 |
| 20260505114023 | 48 | 222 | 0.0 | 1.7 | 0.00 | 0.00 | 0.00 | 100 | 1022.0 |
| 20260505113523 | 49 | 226 | 0.0 | 0.9 | 0.00 | 0.00 | 0.00 | 100 | 1022.0 |
| 20260505113023 | 49 | 223 | 0.9 | 2.6 | 0.00 | 0.00 | 0.00 | 100 | 1022.0 |
| 20260505112522 | 49 | 207 | 0.9 | 2.6 | 0.00 | 0.00 | 0.00 | 100 | 1022.0 |
| 20260505112138 | 49 | 206 | 0.0 | 1.7 | 0.00 | 0.00 | 0.00 | 100 | 1022.0 |
| 20260505111523 | 48 | 224 | 0.0 | 0.9 | 0.00 | 0.00 | 0.00 | 100 | 1022.0 |
| 20260505111022 | 48 | 228 | 0.0 | 0.0 | 0.00 | 0.00 | 0.00 | 100 | 1022.0 |
| 20260505110523 | 48 | 245 | 0.0 | 0.9 | 0.00 | 0.00 | 0.00 | 100 | 1022.0 |
| 20260505102023 | 49 | 286 | 0.0 | 0.0 | 0.00 | 0.00 | 0.00 | 100 | 1022.0 |
| 20260505101523 | 49 | 270 | 0.0 | 1.7 | 0.00 | 0.00 | 0.00 | 100 | 1022.0 |
| 20260505101023 | 50 | 269 | 0.9 | 2.6 | 0.00 | 0.00 | 0.00 | 100 | 1022.0 |
| 20260505100522 | 50 | 270 | 0.9 | 2.6 | 0.00 | 0.00 | 0.00 | 100 | 1022.0 |
| 20260505100023 | 50 | 263 | 1.7 | 2.6 | 0.00 | 0.00 | 0.00 | 100 | 1022.0 |
| 20260505095523 | 50 | 253 | 1.7 | 3.5 | 0.00 | 0.00 | 0.00 | 100 | 1022.0 |
| 20260505095023 | 50 | 246 | 2.6 | 3.5 | 0.00 | 0.00 | 0.00 | 100 | 1022.0 |
| 20260505094524 | 51 | 246 | 2.6 | 5.2 | 0.00 | 0.00 | 0.00 | 100 | 1022.0 |
| 20260505094137 | 50 | 237 | 1.7 | 4.3 | 0.00 | 0.00 | 0.00 | 100 | 1022.0 |
| 20260505093522 | 50 | 230 | 1.7 | 3.5 | 0.00 | 0.00 | 0.00 | 100 | 1022.0 |
| 20260505093023 | 51 | 238 | 2.6 | 5.2 | 0.00 | 0.00 | 0.00 | 100 | 1022.0 |
| 20260505092638 | 50 | 234 | 1.7 | 3.5 | 0.00 | 0.00 | 0.00 | 100 | 1022.0 |
| 20260505092023 | 50 | 232 | 0.9 | 3.5 | 0.00 | 0.00 | 0.00 | 100 | 1022.0 |
| 20260505091523 | 50 | 246 | 1.7 | 2.6 | 0.00 | 0.00 | 0.00 | 100 | 1022.0 |
| 20260505091022 | 50 | 261 | 1.7 | 3.5 | 0.00 | 0.00 | 0.00 | 100 | 1022.0 |
| 20260505090523 | 49 | 287 | 0.9 | 2.6 | 0.00 | 0.00 | 0.00 | 100 | 1021.0 |
| 20260505090023 | 49 | 308 | 0.9 | 2.6 | 0.00 | 0.00 | 0.00 | 100 | 1021.0 |
| 20260505085523 | 49 | 318 | 0.9 | 3.5 | 0.00 | 0.00 | 0.00 | 100 | 1021.0 |
| 20260505085022 | 49 | 313 | 0.0 | 2.6 | 0.00 | 0.00 | 0.00 | 100 | 1021.0 |
| 20260505084523 | 49 | 311 | 0.9 | 2.6 | 0.00 | 0.00 | 0.00 | 100 | 1021.0 |
| 20260505084023 | 49 | 319 | 0.9 | 3.5 | 0.00 | 0.00 | 0.00 | 100 | 1021.0 |
| 20260505083638 | 50 | 314 | 0.0 | 2.6 | 0.00 | 0.00 | 0.00 | 100 | 1021.0 |
| 20260505083022 | 50 | 305 | 0.9 | 2.6 | 0.00 | 0.00 | 0.00 | 100 | 1021.0 |
| 20260505082637 | 50 | 298 | 0.9 | 3.5 | 0.00 | 0.00 | 0.00 | 100 | 1021.0 |
| 20260505082022 | 50 | 306 | 0.9 | 3.5 | 0.00 | 0.00 | 0.00 | 100 | 1021.0 |
| 20260505081524 | 50 | 318 | 1.7 | 4.3 | 0.00 | 0.00 | 0.00 | 100 | 1021.0 |
| 20260505081023 | 51 | 319 | 0.9 | 5.2 | 0.00 | 0.00 | 0.00 | 100 | 1021.0 |
| 20260505080638 | 50 | 317 | 1.7 | 2.6 | 0.00 | 0.00 | 0.00 | 100 | 1021.0 |
| 20260505080023 | 51 | 321 | 1.7 | 5.2 | 0.00 | 0.00 | 0.00 | 100 | 1021.0 |
| 20260505075523 | 51 | 329 | 1.7 | 3.5 | 0.00 | 0.00 | 0.00 | 100 | 1021.0 |
| 20260505075023 | 51 | 330 | 1.7 | 4.3 | 0.00 | 0.00 | 0.00 | 100 | 1021.0 |
| 20260505074523 | 51 | 325 | 0.9 | 3.5 | 0.00 | 0.00 | 0.00 | 100 | 1021.0 |
| 20260505074022 | 51 | 308 | 0.0 | 1.7 | 0.00 | 0.00 | 0.00 | 100 | 1021.0 |
| 20260505073638 | 52 | 282 | 0.0 | 2.6 | 0.00 | 0.00 | 0.00 | 100 | 1021.0 |
| 20260505073023 | 52 | 288 | 0.0 | 2.6 | 0.00 | 0.00 | 0.00 | 96 | 1021.0 |
| 20260505072523 | 54 | 298 | 0.0 | 0.9 | 0.00 | 0.00 | 0.00 | 95 | 1021.0 |
| 20260505072137 | 55 | 291 | 0.9 | 2.6 | 0.00 | 0.00 | 0.00 | 94 | 1021.0 |
| 20260505071523 | 56 | 291 | 0.9 | 3.5 | 0.00 | 0.00 | 0.00 | 93 | 1021.0 |
| 20260505071023 | 57 | 283 | 0.9 | 2.6 | 0.00 | 0.00 | 0.00 | 92 | 1021.0 |
| 20260505070523 | 58 | 256 | 0.9 | 2.6 | 0.00 | 0.00 | 0.00 | 91 | 1021.0 |
| 20260505070023 | 59 | 233 | 1.7 | 3.5 | 0.00 | 0.00 | 0.00 | 90 | 1021.0 |
| 20260505065637 | 59 | 242 | 1.7 | 3.5 | 0.00 | 0.00 | 0.00 | 90 | 1021.0 |
| 20260505065022 | 61 | 253 | 1.7 | 3.5 | 0.00 | 0.00 | 0.00 | 86 | 1020.0 |
| 20260505064523 | 60 | 257 | 2.6 | 3.5 | 0.00 | 0.00 | 0.00 | 87 | 1020.0 |
| 20260505064138 | 60 | 286 | 2.6 | 4.3 | 0.00 | 0.00 | 0.00 | 86 | 1020.0 |
| 20260505063523 | 61 | 296 | 2.6 | 6.1 | 0.00 | 0.00 | 0.00 | 86 | 1020.0 |
| 20260505063024 | 61 | 275 | 2.6 | 7.0 | 0.00 | 0.00 | 0.00 | 84 | 1020.0 |
| 20260505062637 | 62 | 258 | 2.6 | 5.2 | 0.00 | 0.00 | 0.00 | 84 | 1020.0 |
| 20260505062022 | 62 | 258 | 4.3 | 7.0 | 0.00 | 0.00 | 0.00 | 83 | 1020.0 |
| 20260505061524 | 62 | 280 | 4.3 | 7.8 | 0.00 | 0.00 | 0.00 | 82 | 1020.0 |
| 20260505061023 | 63 | 278 | 3.5 | 7.8 | 0.00 | 0.00 | 0.00 | 82 | 1020.0 |
| 20260505060522 | 63 | 270 | 3.5 | 8.7 | 0.00 | 0.00 | 0.00 | 83 | 1020.0 |
| 20260505060023 | 62 | 266 | 2.6 | 7.8 | 0.00 | 0.00 | 0.00 | 85 | 1020.0 |
| 20260505055523 | 61 | 262 | 2.6 | 6.1 | 0.00 | 0.00 | 0.00 | 88 | 1020.0 |
| 20260505055023 | 60 | 278 | 2.6 | 5.2 | 0.00 | 0.00 | 0.00 | 91 | 1020.0 |
| 20260505054523 | 59 | 292 | 2.6 | 6.1 | 0.00 | 0.00 | 0.00 | 92 | 1020.0 |
| 20260505054022 | 59 | 295 | 3.5 | 6.1 | 0.00 | 0.00 | 0.00 | 91 | 1020.0 |
| 20260505053523 | 59 | 295 | 2.6 | 7.0 | 0.00 | 0.00 | 0.00 | 90 | 1020.0 |
| 20260505053024 | 60 | 288 | 2.6 | 5.2 | 0.00 | 0.00 | 0.00 | 90 | 1020.0 |
| 20260505052523 | 60 | 275 | 3.5 | 5.2 | 0.00 | 0.00 | 0.00 | 89 | 1020.0 |
| 20260505052023 | 59 | 283 | 3.5 | 7.0 | 0.00 | 0.00 | 0.00 | 90 | 1020.0 |
| 20260505051523 | 60 | 283 | 3.5 | 7.0 | 0.00 | 0.00 | 0.00 | 90 | 1020.0 |
| 20260505051137 | 59 | 281 | 3.5 | 7.8 | 0.00 | 0.00 | 0.00 | 90 | 1020.0 |
| 20260505050638 | 59 | 289 | 3.5 | 7.0 | 0.00 | 0.00 | 0.00 | 90 | 1020.0 |
| 20260505041524 | 60 | 291 | 3.5 | 7.0 | 0.00 | 0.00 | 0.00 | 86 | 1020.0 |
| 20260505041137 | 60 | 302 | 3.5 | 6.1 | 0.00 | 0.00 | 0.00 | 87 | 1020.0 |
| 20260505040523 | 60 | 300 | 2.6 | 5.2 | 0.00 | 0.00 | 0.00 | 87 | 1020.0 |
| 20260505040024 | 61 | 296 | 3.5 | 6.1 | 0.00 | 0.00 | 0.00 | 86 | 1020.0 |
| 20260505035638 | 61 | 301 | 3.5 | 7.8 | 0.00 | 0.00 | 0.00 | 84 | 1020.0 |
| 20260505035137 | 62 | 291 | 3.5 | 7.0 | 0.00 | 0.00 | 0.00 | 81 | 1020.0 |
| 20260505034523 | 62 | 282 | 3.5 | 7.0 | 0.00 | 0.00 | 0.00 | 82 | 1020.0 |
| 20260505034023 | 63 | 281 | 3.5 | 6.1 | 0.00 | 0.00 | 0.00 | 82 | 1020.0 |
| 20260505033523 | 62 | 273 | 3.5 | 6.1 | 0.00 | 0.00 | 0.00 | 84 | 1019.0 |
| 20260505033138 | 61 | 284 | 2.6 | 6.1 | 0.00 | 0.00 | 0.00 | 88 | 1019.0 |
| 20260505032522 | 60 | 300 | 2.6 | 5.2 | 0.00 | 0.00 | 0.00 | 85 | 1019.0 |
| 20260505032022 | 61 | 283 | 2.6 | 6.1 | 0.00 | 0.00 | 0.00 | 82 | 1019.0 |
| 20260505031638 | 63 | 281 | 2.6 | 6.1 | 0.00 | 0.00 | 0.00 | 79 | 1019.0 |
| 20260505031024 | 64 | 294 | 3.5 | 6.1 | 0.00 | 0.00 | 0.00 | 80 | 1019.0 |
| 20260505030522 | 64 | 289 | 3.5 | 7.0 | 0.00 | 0.00 | 0.00 | 80 | 1019.0 |
| 20260505030023 | 62 | 272 | 3.5 | 6.1 | 0.00 | 0.00 | 0.00 | 80 | 1019.0 |
| 20260505025523 | 62 | 274 | 3.5 | 7.8 | 0.00 | 0.00 | 0.00 | 84 | 1019.0 |
| 20260505025023 | 63 | 269 | 2.6 | 6.1 | 0.00 | 0.00 | 0.00 | 84 | 1019.0 |
| 20260505024523 | 61 | 274 | 1.7 | 4.3 | 0.00 | 0.00 | 0.00 | 87 | 1019.0 |
| 20260505024022 | 61 | 292 | 2.6 | 5.2 | 0.00 | 0.00 | 0.00 | 86 | 1019.0 |
| 20260505023523 | 60 | 284 | 1.7 | 6.1 | 0.00 | 0.00 | 0.00 | 87 | 1020.0 |
| 20260505023023 | 61 | 274 | 2.6 | 5.2 | 0.00 | 0.00 | 0.00 | 88 | 1020.0 |
| 20260505022523 | 61 | 290 | 2.6 | 6.1 | 0.00 | 0.00 | 0.00 | 90 | 1020.0 |
| 20260505022022 | 61 | 309 | 1.7 | 5.2 | 0.00 | 0.00 | 0.00 | 90 | 1020.0 |
| 20260505021523 | 60 | 319 | 2.6 | 3.5 | 0.00 | 0.00 | 0.00 | 90 | 1020.0 |
| 20260505021023 | 59 | 316 | 3.5 | 5.2 | 0.00 | 0.00 | 0.00 | 91 | 1020.0 |
| 20260505020638 | 59 | 309 | 4.3 | 7.8 | 0.00 | 0.00 | 0.00 | 91 | 1020.0 |
| 20260505020023 | 59 | 302 | 3.5 | 7.0 | 0.00 | 0.00 | 0.00 | 92 | 1020.0 |
| 20260505015637 | 59 | 291 | 2.6 | 6.1 | 0.00 | 0.00 | 0.00 | 94 | 1020.0 |
| 20260505015138 | 57 | 282 | 3.5 | 5.2 | 0.00 | 0.00 | 0.00 | 94 | 1020.0 |
| 20260505014523 | 58 | 277 | 2.6 | 8.7 | 0.00 | 0.00 | 0.00 | 93 | 1020.0 |
| 20260505014022 | 58 | 276 | 3.5 | 4.3 | 0.00 | 0.00 | 0.00 | 92 | 1020.0 |
| 20260505013522 | 58 | 271 | 3.5 | 7.0 | 0.00 | 0.00 | 0.00 | 93 | 1020.0 |
| 20260505013023 | 58 | 262 | 2.6 | 5.2 | 0.00 | 0.00 | 0.00 | 93 | 1020.0 |
| 20260505012638 | 58 | 221 | 2.6 | 5.2 | 0.00 | 0.00 | 0.00 | 93 | 1020.0 |
| 20260505012022 | 57 | 196 | 2.6 | 6.1 | 0.00 | 0.00 | 0.00 | 93 | 1020.0 |
| 20260505011523 | 58 | 222 | 2.6 | 4.3 | 0.00 | 0.00 | 0.00 | 92 | 1020.0 |
| 20260505011022 | 58 | 203 | 1.7 | 5.2 | 0.00 | 0.00 | 0.00 | 92 | 1020.0 |
| 20260505010523 | 58 | 181 | 0.9 | 2.6 | 0.00 | 0.00 | 0.00 | 94 | 1020.0 |
| 20260505010023 | 59 | 213 | 1.7 | 4.3 | 0.00 | 0.00 | 0.00 | 92 | 1020.0 |
| 20260505005522 | 59 | 219 | 2.6 | 7.0 | 0.00 | 0.00 | 0.00 | 92 | 1020.0 |
| 20260505005022 | 59 | 210 | 3.5 | 6.1 | 0.00 | 0.00 | 0.00 | 92 | 1020.0 |
| 20260505004638 | 59 | 209 | 3.5 | 7.0 | 0.00 | 0.00 | 0.00 | 94 | 1020.0 |
| 20260505004138 | 59 | 236 | 2.6 | 7.8 | 0.00 | 0.00 | 0.00 | 94 | 1020.0 |
| 20260505003637 | 60 | 259 | 2.6 | 4.3 | 0.00 | 0.00 | 0.00 | 96 | 1020.0 |
| 20260505003023 | 59 | 242 | 2.6 | 5.2 | 0.00 | 0.00 | 0.00 | 98 | 1020.0 |
| 20260505002523 | 58 | 241 | 3.5 | 7.0 | 0.00 | 0.00 | 0.00 | 98 | 1020.0 |
| 20260505002023 | 59 | 239 | 2.6 | 6.1 | 0.00 | 0.00 | 0.00 | 100 | 1020.0 |
| 20260505001523 | 58 | 217 | 2.6 | 6.1 | 0.00 | 0.00 | 0.00 | 100 | 1020.0 |
| 20260505001023 | 57 | 228 | 3.5 | 6.1 | 0.00 | 0.00 | 0.00 | 100 | 1020.0 |
| 20260505000522 | 58 | 243 | 3.5 | 6.1 | 0.00 | 0.00 | 0.00 | 100 | 1020.0 |
| 20260505000023 | 56 | 240 | 1.7 | 5.2 | 0.00 | 0.00 | 0.00 | 100 | 1020.0 |
| 20260504235638 | 55 | 241 | 1.7 | 4.3 | 0.00 | 0.00 | 0.00 | 100 | 1020.0 |
| 20260504235023 | 54 | 237 | 2.6 | 4.3 | 0.00 | 0.00 | 0.00 | 100 | 1020.0 |
| 20260504234523 | 54 | 229 | 2.6 | 5.2 | 0.00 | 0.00 | 0.00 | 100 | 1020.0 |
| 20260504234023 | 54 | 235 | 3.5 | 6.1 | 0.00 | 0.00 | 0.00 | 100 | 1020.0 |
| 20260504233523 | 53 | 242 | 1.7 | 5.2 | 0.00 | 0.00 | 0.00 | 100 | 1020.0 |
| 20260504233138 | 54 | 287 | 0.9 | 3.5 | 0.00 | 0.00 | 0.00 | 100 | 1020.0 |
| 20260504232523 | 54 | 330 | 0.0 | 2.6 | 0.00 | 0.00 | 0.00 | 100 | 1020.0 |
| 20260504232022 | 55 | 330 | 0.0 | 1.7 | 0.00 | 0.00 | 0.00 | 100 | 1020.0 |
| 20260504231523 | 55 | 322 | 0.0 | 1.7 | 0.00 | 0.00 | 0.00 | 100 | 1020.0 |
| 20260504231023 | 55 | 329 | 0.0 | 1.7 | 0.00 | 0.00 | 0.00 | 100 | 1020.0 |
| 20260504230523 | 54 | 292 | 0.0 | 1.7 | 0.00 | 0.00 | 0.00 | 100 | 1020.0 |
| 20260504230023 | 53 | 216 | 0.0 | 0.9 | 0.00 | 0.00 | 0.00 | 100 | 1020.0 |
| 20260504225523 | 52 | 219 | 0.9 | 2.6 | 0.00 | 0.00 | 0.00 | 100 | 1020.0 |
| 20260504225023 | 52 | 280 | 0.9 | 2.6 | 0.00 | 0.00 | 0.00 | 100 | 1019.0 |
| 20260504224522 | 52 | 322 | 0.9 | 2.6 | 0.00 | 0.00 | 0.00 | 100 | 1019.0 |
| 20260504224022 | 52 | 333 | 0.9 | 1.7 | 0.00 | 0.00 | 0.00 | 100 | 1019.0 |
| 20260504223523 | 52 | 335 | 1.7 | 2.6 | 0.00 | 0.00 | 0.00 | 100 | 1019.0 |
| 20260504223023 | 52 | 352 | 1.7 | 3.5 | 0.00 | 0.00 | 0.00 | 100 | 1019.0 |
| 20260504222523 | 52 | 20 | 1.7 | 3.5 | 0.00 | 0.00 | 0.00 | 100 | 1019.0 |
| 20260504222022 | 51 | 31 | 2.6 | 3.5 | 0.00 | 0.00 | 0.00 | 100 | 1019.0 |
| 20260504221638 | 51 | 25 | 1.7 | 3.5 | 0.00 | 0.00 | 0.00 | 100 | 1019.0 |
| 20260504221022 | 52 | 359 | 1.7 | 2.6 | 0.00 | 0.00 | 0.00 | 100 | 1019.0 |
| 20260504220523 | 52 | 340 | 1.7 | 3.5 | 0.00 | 0.00 | 0.00 | 100 | 1019.0 |
| 20260504220023 | 52 | 346 | 1.7 | 2.6 | 0.00 | 0.00 | 0.00 | 100 | 1019.0 |
| 20260504215638 | 50 | 358 | 1.7 | 2.6 | 0.00 | 0.00 | 0.00 | 100 | 1019.0 |
| 20260504215023 | 49 | 3 | 2.6 | 3.5 | 0.00 | 0.00 | 0.00 | 100 | 1018.0 |
| 20260504214522 | 49 | 10 | 2.6 | 4.3 | 0.00 | 0.00 | 0.00 | 100 | 1018.0 |
| 20260504214022 | 49 | 19 | 2.6 | 4.3 | 0.00 | 0.00 | 0.00 | 100 | 1018.0 |
| 20260504213637 | 49 | 23 | 2.6 | 4.3 | 0.00 | 0.00 | 0.00 | 100 | 1018.0 |
| 20260504213023 | 48 | 16 | 1.7 | 2.6 | 0.00 | 0.00 | 0.00 | 100 | 1018.0 |
| 20260504212523 | 48 | 358 | 0.9 | 2.6 | 0.00 | 0.00 | 0.00 | 100 | 1018.0 |
| 20260504212137 | 48 | 320 | 0.9 | 2.6 | 0.00 | 0.00 | 0.00 | 100 | 1018.0 |
| 20260504211523 | 48 | 290 | 0.9 | 3.5 | 0.00 | 0.00 | 0.00 | 100 | 1018.0 |
| 20260504211022 | 48 | 288 | 1.7 | 3.5 | 0.00 | 0.00 | 0.00 | 100 | 1018.0 |
| 20260504210638 | 48 | 287 | 2.6 | 5.2 | 0.00 | 0.00 | 0.00 | 100 | 1018.0 |
| 20260504210023 | 48 | 298 | 2.6 | 5.2 | 0.00 | 0.00 | 0.00 | 100 | 1018.0 |
| 20260504205523 | 48 | 308 | 1.7 | 5.2 | 0.00 | 0.00 | 0.00 | 100 | 1018.0 |
| 20260504205023 | 48 | 300 | 1.7 | 4.3 | 0.00 | 0.00 | 0.00 | 100 | 1018.0 |
| 20260504204522 | 49 | 286 | 1.7 | 4.3 | 0.00 | 0.00 | 0.00 | 100 | 1018.0 |
| 20260504204022 | 49 | 288 | 2.6 | 4.3 | 0.00 | 0.00 | 0.00 | 100 | 1018.0 |
| 20260504203523 | 50 | 291 | 2.6 | 4.3 | 0.00 | 0.00 | 0.00 | 100 | 1018.0 |
| 20260504203138 | 50 | 297 | 1.7 | 4.3 | 0.00 | 0.00 | 0.00 | 100 | 1018.0 |
| 20260504202523 | 50 | 283 | 1.7 | 3.5 | 0.00 | 0.00 | 0.00 | 100 | 1018.0 |
| 20260504202022 | 50 | 276 | 1.7 | 3.5 | 0.00 | 0.00 | 0.00 | 100 | 1017.0 |
| 20260504201524 | 50 | 285 | 0.9 | 2.6 | 0.00 | 0.00 | 0.00 | 100 | 1017.0 |
| 20260504201023 | 50 | 271 | 0.9 | 1.7 | 0.00 | 0.00 | 0.00 | 100 | 1017.0 |
| 20260504200523 | 50 | 254 | 0.9 | 2.6 | 0.00 | 0.00 | 0.00 | 100 | 1017.0 |
| 20260504200023 | 50 | 249 | 1.7 | 3.5 | 0.00 | 0.00 | 0.00 | 100 | 1017.0 |
| 20260504195523 | 50 | 243 | 2.6 | 5.2 | 0.00 | 0.00 | 0.00 | 100 | 1017.0 |
| 20260504195137 | 50 | 240 | 2.6 | 6.1 | 0.00 | 0.00 | 0.00 | 100 | 1017.0 |
| 20260504194638 | 50 | 246 | 1.7 | 4.3 | 0.00 | 0.00 | 0.00 | 100 | 1017.0 |
| 20260504194022 | 50 | 243 | 1.7 | 3.5 | 0.00 | 0.00 | 0.00 | 100 | 1017.0 |
| 20260504193522 | 50 | 237 | 2.6 | 7.0 | 0.00 | 0.00 | 0.00 | 100 | 1017.0 |
| 20260504193024 | 50 | 240 | 2.6 | 6.1 | 0.00 | 0.00 | 0.00 | 100 | 1017.0 |
| 20260504192523 | 50 | 239 | 3.5 | 6.1 | 0.00 | 0.00 | 0.00 | 100 | 1017.0 |
| 20260504192023 | 50 | 238 | 3.5 | 6.1 | 0.00 | 0.00 | 0.00 | 100 | 1017.0 |
| 20260504191523 | 50 | 239 | 3.5 | 9.6 | 0.00 | 0.00 | 0.00 | 100 | 1017.0 |
| 20260504191022 | 51 | 233 | 3.5 | 7.8 | 0.00 | 0.00 | 0.00 | 100 | 1017.0 |
| 20260504190522 | 51 | 224 | 3.5 | 7.8 | 0.00 | 0.00 | 0.00 | 100 | 1017.0 |
| 20260504190138 | 51 | 214 | 3.5 | 7.0 | 0.00 | 0.00 | 0.00 | 100 | 1017.0 |
| 20260504185523 | 51 | 214 | 3.5 | 7.0 | 0.00 | 0.00 | 0.00 | 100 | 1017.0 |
| 20260504185138 | 51 | 222 | 3.5 | 7.8 | 0.00 | 0.00 | 0.00 | 100 | 1017.0 |
| 20260504184523 | 51 | 229 | 3.5 | 7.0 | 0.00 | 0.00 | 0.00 | 100 | 1017.0 |
| 20260504184022 | 51 | 240 | 3.5 | 7.8 | 0.00 | 0.00 | 0.00 | 100 | 1017.0 |
| 20260504183522 | 51 | 246 | 3.5 | 7.0 | 0.00 | 0.00 | 0.00 | 100 | 1017.0 |
| 20260504183023 | 51 | 245 | 3.5 | 7.0 | 0.00 | 0.00 | 0.00 | 100 | 1017.0 |
| 20260504182523 | 51 | 240 | 2.6 | 7.0 | 0.00 | 0.00 | 0.00 | 100 | 1017.0 |
| 20260504182023 | 51 | 244 | 3.5 | 6.1 | 0.00 | 0.00 | 0.00 | 100 | 1017.0 |
| 20260504181523 | 51 | 249 | 4.3 | 8.7 | 0.00 | 0.00 | 0.00 | 100 | 1017.0 |
| 20260504181022 | 52 | 241 | 4.3 | 9.6 | 0.00 | 0.00 | 0.00 | 100 | 1017.0 |
| 20260504180522 | 52 | 247 | 3.5 | 9.6 | 0.00 | 0.00 | 0.00 | 100 | 1017.0 |
| 20260504180023 | 52 | 248 | 4.3 | 9.6 | 0.00 | 0.00 | 0.00 | 100 | 1017.0 |
| 20260504175523 | 52 | 251 | 4.3 | 9.6 | 0.00 | 0.00 | 0.00 | 100 | 1017.0 |
| 20260504175022 | 52 | 258 | 4.3 | 10.4 | 0.00 | 0.00 | 0.00 | 100 | 1016.0 |
| 20260504174523 | 52 | 254 | 4.3 | 11.3 | 0.00 | 0.00 | 0.00 | 100 | 1016.0 |
| 20260504174023 | 52 | 250 | 4.3 | 10.4 | 0.00 | 0.00 | 0.00 | 100 | 1016.0 |
| 20260504173638 | 52 | 247 | 4.3 | 8.7 | 0.00 | 0.00 | 0.00 | 100 | 1016.0 |
| 20260504173137 | 52 | 242 | 4.3 | 7.8 | 0.00 | 0.00 | 0.00 | 100 | 1016.0 |
| 20260504172522 | 52 | 247 | 4.3 | 8.7 | 0.00 | 0.00 | 0.00 | 100 | 1016.0 |
| 20260504172022 | 52 | 262 | 3.5 | 9.6 | 0.00 | 0.00 | 0.00 | 100 | 1016.0 |
| 20260504171523 | 52 | 263 | 2.6 | 5.2 | 0.00 | 0.00 | 0.00 | 100 | 1016.0 |
| 20260504171138 | 52 | 268 | 2.6 | 7.8 | 0.00 | 0.00 | 0.00 | 100 | 1016.0 |
| 20260504170523 | 52 | 277 | 2.6 | 5.2 | 0.00 | 0.00 | 0.00 | 100 | 1016.0 |
| 20260504151022 | 52 | 293 | 4.3 | 9.6 | 0.00 | 0.00 | 0.00 | 100 | 1016.0 |
| 20260504150638 | 52 | 291 | 5.2 | 11.3 | 0.00 | 0.00 | 0.00 | 100 | 1016.0 |
| 20260504141022 | 52 | 304 | 3.5 | 7.0 | 0.00 | 0.00 | 0.00 | 100 | 1016.0 |
| 20260504140522 | 52 | 303 | 2.6 | 6.1 | 0.00 | 0.00 | 0.00 | 100 | 1016.0 |
| 20260504130522 | 55 | 282 | 2.6 | 6.1 | 0.00 | 0.14 | 0.14 | 99 | 1016.0 |